Regional Weather Roundup
Issued by NWS

Home | Current Version | Previous Version | Text Only | Print | Product List | Glossary Off
Versions: 1 2 3 4 5 6 7 8 9 10 11 12 13 14 15 16 17 18 19 20 21 22 23 24 25 26 27 28 29 30 31 32 33 34 35 36 37 38 39 40 41 42 43 44 45 46 47 48 49 50

000
ASUS43 KDTX 301510
RWRMI
MICHIGAN HOURLY REGIONAL WEATHER ROUNDUP
NATIONAL WEATHER SERVICE DETROIT/PONTIAC MI
1100 AM EDT WED JUL 30 2014

NOTE: "FAIR" INDICATES FEW OR NO CLOUDS BELOW 12,000 FEET WITH NO
SIGNIFICANT WEATHER AND/OR OBSTRUCTION TO VISIBILITY.

MIZ047>049-052>055-059>063-066>070-074>076-081>083-301600-
SOUTHEAST LOWER MICHIGAN

CITY           SKY/WX    TMP DP  RH WIND       PRES   REMARKS
ADRIAN         MOSUNNY   68  56  65 NW7       30.03R
ALMA           CLOUDY    64  55  70 CALM      30.02S
ANN ARBOR      PTSUNNY   68  57  68 N5        30.02R
BAD AXE        MOSUNNY   65  54  67 NW7       30.00S
DETROIT CITY   CLOUDY    70  56  61 W3        30.01S
DETROIT        PTSUNNY   69  59  70 W3        30.02R
FLINT          MOSUNNY   65  58  78 CALM      30.02S
GROSSE ILE     PTSUNNY   68  61  77 CALM      30.00S
HILLSDALE      MOSUNNY   68  58  71 W3        30.03R
HOWELL         CLOUDY    63  57  83 CALM      30.02S

CITY           SKY/WX    TMP DP  RH WIND       PRES   REMARKS
JACKSON        PTSUNNY   66  57  72 N3        30.02S
LAMBERTVILLE   SUNNY     70  57  64 SW3       30.02S
LANSING        MOSUNNY   65  57  75 CALM      30.02S
LAPEER         NOT AVBL
MASON          CLOUDY    63  57  81 CALM      30.03S
MONROE         MOSUNNY   70  59  68 CALM      30.00S
MT. CLEMENS    MOSUNNY   65  58  79 NW6       30.00S
PONTIAC        PTSUNNY   63  56  78 NW6       30.01S
PORT HOPE        N/A     64  55  72 CALM      29.99R
PORT HURON     CLOUDY    64  59  82 W6        30.01R
TRI CITIES     SUNNY     68  53  58 NW6       30.02R
YPSILANTI      CLOUDY    71  58  63 CALM      30.02R
$$
MIZ043>046-050>051-056>058-064>065-071>073-077>080-301600-
SOUTHWEST LOWER MICHIGAN

CITY           SKY/WX    TMP DP  RH WIND       PRES   REMARKS
BATTLE CREEK   MOSUNNY   67  58  72 W6        30.02F
BENTON HARBOR  SUNNY     66  58  75 W6        30.03S
BIG RAPIDS     MOSUNNY   67  53  59 N6        30.01S
COLDWATER      MOSUNNY   68  60  75 W3        30.03R
HOLLAND        PTSUNNY   67  59  75 VRB3      30.03R
GRAND RAPIDS   PTSUNNY   66  59  78 CALM      30.02S
KALAMAZOO      SUNNY     69  58  67 W8        30.03R
MARSHALL       MOSUNNY   67  58  72 W8        30.02S
MUSKEGON       MOSUNNY   67  57  70 CALM      30.02S
$$
MIZ016>042-301600-
NORTHERN LOWER MICHIGAN

CITY           SKY/WX    TMP DP  RH WIND       PRES   REMARKS
ALPENA         PTSUNNY   63  55  75 NW7       30.00S
BEAVER ISLAND  SUNNY     61  55  82 NW5       30.02S
BELLAIRE       SUNNY     64  54  68 W5        30.01S
CADILLAC       SUNNY     65  52  61 NW8       30.02S
CHARLEVOIX     CLOUDY    61  56  81 W6        30.05R
FRANKFORT      PTSUNNY   63  57  80 NW6       30.03S
GAYLORD        MOSUNNY   63  52  67 W9        30.01S
GRAYLING       MOSUNNY   67  53  60 NW7       30.01F
HARBOR SPRINGS CLOUDY    63  55  77 SW6       30.01S
HOUGHTON LAKE  MOSUNNY   64  53  67 W6        30.02S
MANISTEE       SUNNY     64  54  68 NW6       30.04S
OSCODA         SUNNY     67  51  55 N10G20    29.98S
PELLSTON       SUNNY     66  48  52 NW6       30.01S
TRAVERSE CITY  MOSUNNY   66  54  65 VRB6      30.01S
$$
MIZ007>008-015-301600-
EASTERN UPPER MICHIGAN

CITY           SKY/WX    TMP DP  RH WIND       PRES   REMARKS
KINROSS        MOSUNNY   57  54  88 CALM      30.00F
MACKINAC ISLAN SUNNY     59  53  81 CALM      30.00F
NEWBERRY       MOSUNNY   59  54  83 NW8       30.01S
S. S. MARIE    MOSUNNY   60  51  72 W8        29.99F
$$
MIZ004>006-011>014-085-301600-
CENTRAL UPPER MICHIGAN

CITY           SKY/WX    TMP DP  RH WIND       PRES   REMARKS
MANISTIQUE     SUNNY     64  51  60 N8        30.02R
ESCANABA       MOSUNNY   64  50  59 N7        30.03S
MENOMINEE      SUNNY     63  54  72 N6        30.03F
SAWYER-GWINN   SUNNY     63  48  59 N6        30.04S
$$
MIZ001>003-009>011-084-301600-
WESTERN UPPER MICHIGAN

CITY           SKY/WX    TMP DP  RH WIND       PRES   REMARKS
IRON MOUNTAIN  SUNNY     65  48  54 NW10      30.04F
HOUGHTON       SUNNY     62  51  67 NW15      30.03S
COPPER HARBOR    N/A     65  52  62 N12G18    30.00F
IRONWOOD       SUNNY     61  57  88 W6        30.04F
$$

ABBREVIATIONS USED IN REMARKS
   TC - TEMPERATURE IN CELSIUS
  WCI - WIND CHILL INDEX
   HX - HEAT INDEX
  VSB - VISIBILITY




USA.gov is the U.S. government's official web portal to all federal, state and local government web resources and services.